• In Netherlands
  • List of Countries
  • For 7 days
  • Water Temperature
  • Satellite Maps
  • Weather Map
  • Weather Widgets
  • user-avatar
    Login

    Hourly Weather Reno

    Today, 24 November, Friday

    Time Temperature Precipitation Wind Pressure Humidity
    00:00 +9°C° 0 mm 2 mps 645 mmHg 71%
    01:00 +9°C° 0 mm 2 mps 645 mmHg 75%
    02:00 +9°C° 0 mm 2 mps 645 mmHg 77%
    03:00 +8°C° 0 mm 2 mps 644 mmHg 80%
    04:00 +8°C° 0 mm 2 mps 644 mmHg 83%
    05:00 +7°C° 0 mm 2 mps 644 mmHg 83%
    06:00 +7°C° 0 mm 2 mps 644 mmHg 83%
    07:00 +7°C° 0 mm 2 mps 644 mmHg 83%
    08:00 +9°C° 0 mm 2 mps 645 mmHg 72%
    09:00 +12°C° 0 mm 2 mps 645 mmHg 61%
    10:00 +14°C° 0 mm 2 mps 646 mmHg 50%
    11:00 +15°C° 0 mm 2 mps 646 mmHg 43%
    12:00 +16°C° 0 mm 2 mps 646 mmHg 36%
    13:00 +17°C° 0 mm 2 mps 646 mmHg 30%
    14:00 +16°C° 0 mm 2 mps 646 mmHg 33%
    15:00 +16°C° 0 mm 2 mps 646 mmHg 36%
    16:00 +15°C° 0 mm 1 mps 645 mmHg 39%
    17:00 +13°C° 0 mm 1 mps 645 mmHg 43%
    18:00 +12°C° 0 mm 1 mps 645 mmHg 46%
    19:00 +10°C° 0 mm 1 mps 645 mmHg 50%
    20:00 +10°C° 0 mm 1 mps 645 mmHg 47%
    21:00 +10°C° 0 mm 1 mps 645 mmHg 45%
    22:00 +10°C° 0 mm 1 mps 645 mmHg 42%
    23:00 +10°C° 0 mm 1 mps 645 mmHg 40%

    Tomorrow, 25 November, Saturday

    Time Temperature Precipitation Wind Pressure Humidity
    00:00 +10°C° 0 mm 1 mps 645 mmHg 39%
    01:00 +11°C° 0 mm 1 mps 644 mmHg 37%
    02:00 +10°C° 0 mm 1 mps 644 mmHg 37%
    03:00 +10°C° 0 mm 1 mps 644 mmHg 38%
    04:00 +9°C° 0 mm 1 mps 644 mmHg 39%
    05:00 +9°C° 0 mm 2 mps 644 mmHg 40%
    06:00 +9°C° 0 mm 2 mps 644 mmHg 41%
    07:00 +9°C° 0 mm 2 mps 644 mmHg 41%
    08:00 +12°C° 0 mm 2 mps 644 mmHg 39%
    09:00 +13°C° 0 mm 3 mps 645 mmHg 36%
    10:00 +17°C° 0 mm 3 mps 646 mmHg 33%
    11:00 +18°C° 0 mm 4 mps 646 mmHg 32%
    12:00 +19°C° 0 mm 5 mps 646 mmHg 31%
    13:00 +20°C° 0 mm 6 mps 646 mmHg 30%
    14:00 +19°C° 0 mm 5 mps 645 mmHg 34%
    15:00 +18°C° 0 mm 4 mps 645 mmHg 38%
    16:00 +16°C° 0 mm 3 mps 644 mmHg 42%
    17:00 +14°C° 0 mm 3 mps 644 mmHg 46%
    18:00 +13°C° 0 mm 3 mps 644 mmHg 51%
    19:00 +11°C° 0 mm 3 mps 644 mmHg 55%
    20:00 +11°C° 0 mm 3 mps 644 mmHg 54%
    21:00 +11°C° 0 mm 3 mps 644 mmHg 54%
    22:00 +11°C° 0 mm 3 mps 644 mmHg 54%
    23:00 +11°C° 0 mm 4 mps 644 mmHg 53%

    Day after tomorrow, 26 November, Sunday

    Time Temperature Precipitation Wind Pressure Humidity
    00:00 +11°C° 0 mm 4 mps 644 mmHg 53%
    01:00 +11°C° 0 mm 4 mps 644 mmHg 52%
    02:00 +9°C° 0 mm 5 mps 643 mmHg 51%
    03:00 +9°C° 0 mm 5 mps 643 mmHg 51%
    04:00 +9°C° 0 mm 5 mps 643 mmHg 50%
    05:00 +9°C° 0 mm 5 mps 643 mmHg 52%
    06:00 +9°C° 0 mm 5 mps 643 mmHg 54%
    07:00 +8°C° 0 mm 5 mps 642 mmHg 56%
    08:00 +9°C° 0.3 mm 6 mps 643 mmHg 55%
    09:00 +10°C° 0.3 mm 8 mps 643 mmHg 53%
    10:00 +11°C° 0.3 mm 9 mps 643 mmHg 51%
    11:00 +11°C° 0.2 mm 10 mps 643 mmHg 53%
    12:00 +11°C° 0.2 mm 11 mps 642 mmHg 55%
    13:00 +10°C° 0.2 mm 12 mps 642 mmHg 56%
    14:00 +11°C° 0.2 mm 11 mps 641 mmHg 58%
    15:00 +9°C° 0.2 mm 10 mps 641 mmHg 60%
    16:00 +10°C° 0.2 mm 9 mps 640 mmHg 62%
    17:00 +9°C° 0.2 mm 8 mps 640 mmHg 65%
    18:00 +9°C° 0.2 mm 7 mps 640 mmHg 68%
    19:00 +8°C° 0.2 mm 6 mps 639 mmHg 71%
    20:00 +8°C° 0.7 mm 6 mps 639 mmHg 72%
    21:00 +8°C° 0.7 mm 6 mps 638 mmHg 74%
    22:00 +7°C° 0.7 mm 5 mps 638 mmHg 76%
    23:00 +7°C° 1.2 mm 6 mps 638 mmHg 76%

    27 November, Monday

    Time Temperature Precipitation Wind Pressure Humidity
    00:00 +5°C° 1.2 mm 6 mps 637 mmHg 77%
    01:00 +4°C° 1.2 mm 6 mps 637 mmHg 78%
    02:00 +3°C° 1.3 mm 6 mps 637 mmHg 80%
    03:00 +2°C° 1.3 mm 5 mps 637 mmHg 82%
    04:00 +1°C° 1.3 mm 5 mps 637 mmHg 84%
    05:00 +1°C° 0.5 mm 5 mps 637 mmHg 83%
    06:00 0°C° 0.5 mm 4 mps 638 mmHg 82%
    07:00 +1°C° 0.5 mm 3 mps 639 mmHg 81%
    08:00 +1°C° 0.2 mm 3 mps 640 mmHg 80%
    09:00 +1°C° 0.2 mm 4 mps 641 mmHg 78%
    10:00 +1°C° 0.2 mm 4 mps 642 mmHg 76%
    11:00 +3°C° 0.1 mm 4 mps 642 mmHg 75%
    12:00 +4°C° 0.1 mm 4 mps 643 mmHg 74%
    13:00 +4°C° 0.1 mm 4 mps 643 mmHg 72%
    14:00 +4°C° 0 mm 4 mps 644 mmHg 73%
    15:00 +4°C° 0 mm 3 mps 644 mmHg 73%
    16:00 +4°C° 0 mm 3 mps 645 mmHg 73%
    17:00 +4°C° 0 mm 2 mps 645 mmHg 75%
    18:00 +3°C° 0 mm 2 mps 645 mmHg 77%
    19:00 +3°C° 0 mm 1 mps 646 mmHg 80%
    20:00 +3°C° 0 mm 1 mps 646 mmHg 81%
    21:00 +3°C° 0 mm 1 mps 646 mmHg 82%
    22:00 +2°C° 0 mm 1 mps 647 mmHg 83%
    23:00 +2°C° 0 mm 1 mps 646 mmHg 83%

    28 November, Tuesday

    Time Temperature Precipitation Wind Pressure Humidity
    00:00 +2°C° 0 mm 1 mps 646 mmHg 82%
    01:00 +2°C° 0 mm 1 mps 646 mmHg 82%
    02:00 +2°C° 0 mm 1 mps 646 mmHg 81%
    03:00 +2°C° 0 mm 1 mps 646 mmHg 81%
    04:00 +2°C° 0 mm 1 mps 646 mmHg 80%
    05:00 +2°C° 0 mm 1 mps 647 mmHg 79%
    06:00 +1°C° 0 mm 1 mps 647 mmHg 79%
    07:00 +1°C° 0 mm 1 mps 647 mmHg 78%
    08:00 +3°C° 0 mm 1 mps 647 mmHg 74%
    09:00 +5°C° 0 mm 1 mps 648 mmHg 70%
    10:00 +7°C° 0 mm 1 mps 648 mmHg 66%
    11:00 +8°C° 0 mm 1 mps 648 mmHg 64%
    12:00 +8°C° 0 mm 1 mps 647 mmHg 62%
    13:00 +9°C° 0 mm 1 mps 647 mmHg 59%
    14:00 +9°C° 0 mm 1 mps 647 mmHg 62%
    15:00 +8°C° 0 mm 1 mps 646 mmHg 65%
    16:00 +7°C° 0 mm 0 mps 646 mmHg 68%
    17:00 +6°C° 0 mm 0 mps 646 mmHg 69%
    18:00 +5°C° 0 mm 0 mps 646 mmHg 71%
    19:00 +4°C° 0 mm 0 mps 646 mmHg 73%
    20:00 +4°C° 0 mm 0 mps 646 mmHg 73%
    21:00 +4°C° 0 mm 0 mps 646 mmHg 72%
    22:00 +3°C° 0 mm 0 mps 646 mmHg 72%
    23:00 +4°C° 0 mm 1 mps 646 mmHg 72%

    29 November, Wednesday

    Time Temperature Precipitation Wind Pressure Humidity
    00:00 +4°C° 0 mm 1 mps 646 mmHg 71%
    01:00 +3°C° 0 mm 1 mps 646 mmHg 71%
    02:00 +3°C° 0 mm 1 mps 646 mmHg 70%
    03:00 +3°C° 0 mm 1 mps 646 mmHg 70%
    04:00 +3°C° 0 mm 1 mps 646 mmHg 69%
    05:00 +2°C° 0 mm 1 mps 646 mmHg 68%
    06:00 +2°C° 0 mm 1 mps 646 mmHg 67%
    07:00 +2°C° 0 mm 1 mps 647 mmHg 66%
    08:00 +3°C° 0 mm 2 mps 647 mmHg 62%
    09:00 +5°C° 0 mm 2 mps 648 mmHg 57%
    10:00 +6°C° 0 mm 2 mps 649 mmHg 53%
    11:00 +7°C° 0 mm 2 mps 649 mmHg 53%
    12:00 +7°C° 0 mm 3 mps 649 mmHg 53%
    13:00 +6°C° 0 mm 4 mps 648 mmHg 53%
    14:00 +5°C° 0 mm 4 mps 649 mmHg 56%
    15:00 +4°C° 0 mm 3 mps 649 mmHg 59%
    16:00 +4°C° 0 mm 3 mps 649 mmHg 62%
    17:00 +2°C° 0 mm 3 mps 649 mmHg 63%
    18:00 +1°C° 0 mm 3 mps 649 mmHg 65%
    19:00 0°C° 0 mm 3 mps 650 mmHg 66%
    20:00 0°C° 0 mm 3 mps 650 mmHg 65%
    21:00 -1°C° 0 mm 3 mps 650 mmHg 65%
    22:00 -1°C° 0 mm 2 mps 650 mmHg 65%
    23:00 -1°C° 0 mm 2 mps 650 mmHg 66%
    Show more